Accueil
METAR-TAF:

METAR-TAF

Aéroports :

Aéroport de Saint-Brieuc Armor

Saint-Brieuc, France

latitude: 48-32N, longitude: 002-51W, altitude: 138 m

Observation

Le bulletin a été fait il y a 21 minutes, à 17:30 UTC
Vent 9 kt de sud/sud-ouest, variant entre sud et ouest/sud-ouest
Température 15°C
Humidité 88%
Pression 1015 hPa
Visibilité 10 km ou plus
pluie faible

METAR: LFRT 281730Z AUTO 21009KT 180V250 9999 -RA FEW024/// SCT038/// BKN049/// ///CB 15/13 Q1015

Heure: 19:51 (17:51 UTC)


TAF: absent

Observations et prévisions météorologiques de plus de 4000 aéroports (messages METAR et TAF).

Les stations disponibles sont représentées par des disques jaunes et rouges sur la carte.

Passer la souris dessus pour voir le nom de la station.

Cliquer dessus pour voir les observations et prévisions météorologiques.

Pour changer de carte: cliquez sur les boutons verts avec une croix noire pour zoomer, sur le bouton vert avec un tiret pour effectuer un zoom arrière, ou sur les flèches vertes pour les cartes adjacentes.


METAR-TAF: